Cape Mercy, Nunavut

2:23 PM AST on January 16, 2018 (GMT -0400)
Cape Mercy

Weather History for CWYM - July, 2013

Change the Weather History Date:

Monday, July 22, 2013

  Actual Average Record
Temperature  
Mean Temperature 35 °F -  
Max Temperature 37 °F - - ()
Min Temperature 33 °F - - ()
Degree Days  
Heating Degree Days 30    
Moisture  
Dew Point -    
Average Humidity    
Maximum Humidity    
Minimum Humidity    
Precipitation  
Precipitation 0.00 in - - ()
Sea Level Pressure  
Sea Level Pressure 29.82 in    
Wind  
Wind Speed 38 mph ()    
Max Wind Speed 52 mph    
Max Gust Speed 59 mph    
T = Trace of Precipitation, MM = Missing Value Source: Averaged Metar Reports

Daily Weather History Graph

Daily Weather History Graph

Search for Another Location

Airport or City:

Trip Planner

Search our weather history database for the weather conditions in past years. The results will help you decide how hot, cold, wet, or windy it might be!

Date:

Astronomy

Jul. 22, 2013 Rise Set
Actual Time 3:38 AM ADT 11:00 PM ADT
Civil Twilight 1:53 AM ADT 12:48 AM ADT
Nautical Twilight Sun does not rise Sun does not rise
Astronomical Twilight Sun does not rise Sun does not rise
Moon 9:47 PM ADT (7/22) 4:05 AM ADT (7/22)
Length of Visible Light 22h 55m
Length of Day
19h 21m
Full, 100% of the Moon is Illuminated
Jul 22
Full
Jul 22
Full
Jul 29
Last Quarter
Aug 6
New
Aug 14
First Quarter

Hourly Weather History & Observations

Time (ADT) Temp. Windchill Dew Point Humidity Pressure Visibility Wind Dir Wind Speed Gust Speed Precip Events Conditions
12:00 AM 37.4 °F 22.1 °F - N/A% 29.78 in - East 49.5 mph 57.5 mph N/A   Unknown
1:00 AM 33.8 °F 17.5 °F - N/A% 29.78 in - East 46.0 mph 54.1 mph N/A   Unknown
2:00 AM 35.6 °F 20.8 °F - N/A% 29.78 in - East 40.3 mph 48.3 mph N/A   Unknown
3:00 AM 36 °F - - % 29.78 in - East 41.4 mph - -  
3:00 AM 35.6 °F 20.1 °F - N/A% 29.78 in - East 44.9 mph - N/A   Unknown
4:00 AM 37.4 °F 22.5 °F - N/A% 29.77 in - East 46.0 mph 51.8 mph N/A   Unknown
5:00 AM 37.4 °F 21.8 °F - N/A% 29.75 in - East 51.8 mph - N/A   Unknown
6:00 AM 37.4 °F 21.8 °F - N/A% 29.75 in - East 51.8 mph 57.5 mph N/A   Unknown
7:00 AM 35.6 °F 19.8 °F - N/A% 29.76 in - East 47.2 mph 52.9 mph N/A   Unknown
8:00 AM 35.6 °F 20.0 °F - N/A% 29.76 in - East 46.0 mph 52.9 mph N/A   Unknown
9:00 AM 35 °F - - % 29.77 in - East 46.0 mph - -  
9:00 AM 35.6 °F 19.8 °F - N/A% 29.77 in - East 47.2 mph 55.2 mph N/A   Unknown
10:00 AM 33.8 °F 17.6 °F - N/A% 29.78 in - East 44.9 mph 58.7 mph N/A   Unknown
11:00 AM 35.6 °F 20.8 °F - N/A% 29.79 in - East 40.3 mph 47.2 mph N/A   Unknown
12:00 PM 35.6 °F 21.1 °F - N/A% 29.80 in - East 38.0 mph 48.3 mph N/A   Unknown
1:00 PM 35.6 °F 21.3 °F - N/A% 29.81 in - East 36.8 mph 43.7 mph N/A   Unknown
2:00 PM 35.6 °F 21.0 °F - N/A% 29.83 in - East 39.1 mph - N/A   Unknown
3:00 PM 37 °F - - % 29.85 in - East 34.5 mph - -  
3:00 PM 37.4 °F 23.8 °F - N/A% 29.85 in - East 36.8 mph - N/A   Unknown
4:00 PM 37.4 °F 25.6 °F - N/A% 29.87 in - East 26.5 mph 38.0 mph N/A   Unknown
5:00 PM 37.4 °F 23.8 °F - N/A% 29.87 in - East 36.8 mph 44.9 mph N/A   Unknown
6:00 PM 37.4 °F 24.4 °F - N/A% 29.89 in - East 33.4 mph 42.6 mph N/A   Unknown
7:00 PM 33.8 °F 19.2 °F - N/A% 29.91 in - East 34.5 mph 40.3 mph N/A   Unknown
8:00 PM 35.6 °F 22.7 °F - N/A% 29.91 in - East 28.8 mph 35.7 mph N/A   Unknown
9:00 PM 33 °F - - % 29.91 in - East 40.3 mph - -  
9:00 PM 33.8 °F 18.6 °F - N/A% 29.91 in - East 38.0 mph 48.3 mph N/A   Unknown
10:00 PM 35.6 °F 21.3 °F - N/A% 29.92 in - East 36.8 mph 42.6 mph N/A   Unknown
11:00 PM 35.6 °F 22.1 °F - N/A% 29.93 in - East 32.2 mph - N/A   Unknown